Regional Weather Roundup
Issued by NWS Cleveland, OH

Home | Current Version | Previous Version | Graphics & Text | Print | Product List | Glossary On
Versions: 1 2 3 4 5 6 7 8 9 10 11 12 13 14 15 16 17 18 19 20 21 22 23 24 25 26 27 28 29 30 31 32 33 34 35 36 37 38 39 40 41 42 43 44 45 46 47 48 49 50
000
ASUS41 KCLE 290310
RWRCLE
OHIO REGIONAL WEATHER ROUNDUP
NATIONAL WEATHER SERVICE WILMINGTON, OH
1000 PM EST WED JAN 28 2015

NOTE: "FAIR" INDICATES FEW OR NO CLOUDS BELOW 12,000 FEET WITH NO
SIGNIFICANT WEATHER AND/OR OBSTRUCTIONS TO VISIBILITY.

OHZ001>008-015>018-024>027-034-035-043-044-290400-
   NORTHWEST OHIO

CITY           SKY/WX    TMP DP  RH WIND       PRES   REMARKS
DEFIANCE       MOCLDY    25  16  68 SE8       30.14F WCI  16
FINDLAY        MOCLDY    23  13  65 SE12      30.18F WCI  12
TOLEDO EXPRESS CLOUDY    22  14  71 SE6       30.18F WCI  14
TOLEDO EXEC    CLOUDY    22  13  68 SE6       30.20F WCI  14
LIMA           MOCLDY    27  16  63 S16       30.15F WCI  15
$$

OHZ009>014-019>023-028>033-038-089-290400-
   NORTHEAST OHIO

CITY           SKY/WX    TMP DP  RH WIND       PRES   REMARKS
CLE-HOPKINS    CLOUDY    24   8  50 S9        30.26F WCI  14
CLE-LAKEFRONT  MOCLDY    26   9  48 SE14      30.25F WCI  14
CUY CO. ARPT   MOCLDY    25  10  54 S8        30.25F WCI  16
LORAIN-ELYRIA  MOCLDY    22   9  57 S10       30.23F WCI  11
ASHTABULA      MOCLDY    20   3  48 S9        30.27F WCI   9
AKRON-CANTON   MOCLDY    23  10  57 S12       30.24F WCI  12
WOOSTER        MOCLDY    19   9  65 S6        30.24F WCI  11
MANSFIELD      MOCLDY    22  11  62 SE17      30.19F WCI   8
YOUNGSTOWN     CLOUDY    20   5  52 S8        30.26F WCI  10
$$

OHZ042-051>053-060>062-070>072-077>081-290400-
  SOUTHWEST OHIO

CITY           SKY/WX    TMP DP  RH WIND       PRES   REMARKS
CINC-COVINGTON MOCLDY    32  19  58 SE13      30.17F WCI  22
CINC-LUNKEN    MOCLDY    30  20  66 S3        30.22F
HAMILTON       MOCLDY    31  21  66 CALM      30.20F
DAYTON         MOCLDY    27  20  75 SE12      30.17F WCI  17
WRIGHT-PAT AFB MOCLDY    27  18  69 SE8       30.19F WCI  19
DAYTON GENERAL MOCLDY    30  19  63 SE10      30.18F WCI  21
WILMINGTON     MOCLDY    28  18  66 SE10      30.19F WCI  19
$$

OHZ036-037-039>041-045>050-054>059-063>069-073>076-082>088-290400-
  CENTRAL AND SOUTHEAST OHIO

CITY           SKY/WX    TMP DP  RH WIND       PRES   REMARKS
COLUMBUS       PTCLDY    25  14  63 SE9       30.23F WCI  15
OSU AIRPORT    MOCLDY    25  14  63 SE9       30.21F WCI  15
BOLTON FIELD   MOCLDY    23  16  74 SE6       30.22F WCI  16
RICKENBACK AFB MOCLDY    23  15  72 SE6       30.23F WCI  15
NEWARK         MOCLDY    16  11  80 E3        30.24F
MARION         MOCLDY    22  11  62 S14       30.20F WCI   9
LANCASTER      PTCLDY    26  15  63 SE10      30.24F WCI  16
ZANESVILLE     PTCLDY    22  11  62 S6        30.27F WCI  14
NEW PHILLY     MOCLDY    21  10  62 SE5       30.28F WCI  15
$$



USA.gov is the U.S. government's official web portal to all federal, state and local government web resources and services.